Date,TemperatureHighF,TemperatureAvgF,TemperatureLowF,DewpointHighF,DewpointAvgF,DewpointLowF,HumidityHigh,HumidityAvg,HumidityLow,PressureMaxIn,PressureMinIn,WindSpeedMaxMPH,WindSpeedAvgMPH,GustSpeedMaxMPH,PrecipitationSumIn
2013-4-1,58,52,45,54,46,40,100,82,56,30.05,29.91,12,6,26,0.00
2013-4-2,54,46,37,38,28,18,78,52,24,30.17,30.05,13,7,23,0.00
2013-4-3,57,48,39,35,31,26,65,52,39,30.20,30.11,9,3,18,0.00
2013-4-4,50,41,36,40,36,29,100,86,45,30.18,29.95,12,4,27,0.35
2013-4-5,58,47,39,45,39,31,100,79,37,30.10,29.94,15,5,21,0.00
2013-4-6,64,53,42,39,37,35,79,56,37,30.21,30.11,10,5,20,0.00
2013-4-7,65,58,51,48,43,36,71,58,48,30.23,30.13,11,8,19,0.00
2013-4-8,69,63,56,55,53,47,87,70,58,30.19,30.12,14,7,25,0.00
2013-4-9,75,67,59,59,57,55,89,71,55,30.25,30.15,12,5,20,0.00
2013-4-10,78,70,63,60,58,56,85,68,51,30.19,30.02,13,6,22,0.00
2013-4-11,70,66,58,66,60,57,100,82,70,30.03,29.77,16,9,28,0.45
2013-4-12,60,57,51,60,50,40,100,80,49,29.97,29.73,13,8,29,0.89
2013-4-13,66,56,47,41,38,31,77,54,29,30.08,29.97,13,6,22,0.00
2013-4-14,64,56,52,52,43,35,98,64,39,30.10,29.96,19,7,29,0.02
2013-4-15,71,60,53,61,56,53,100,88,65,30.20,29.98,12,5,19,0.00
2013-4-16,74,65,59,64,61,59,100,88,69,30.31,30.20,16,7,19,0.00
2013-4-17,76,67,59,69,63,59,100,87,66,30.28,30.18,7,4,15,0.98
2013-4-18,72,65,59,64,61,58,100,87,69,30.16,29.99,15,10,27,0.00
2013-4-19,66,57,42,64,55,37,100,95,82,30.03,29.84,22,11,36,0.82
2013-4-20,56,44,34,36,31,27,87,62,40,30.25,30.03,12,7,20,0.00
2013-4-21,62,52,43,40,34,30,67,52,37,30.35,30.26,15,5,17,0.00
2013-4-22,64,54,43,44,41,39,86,63,43,30.33,30.18,10,4,17,0.00
2013-4-23,68,57,45,50,41,31,72,55,43,30.25,30.12,11,4,14,0.00
2013-4-24,65,59,50,60,55,48,100,87,74,30.18,30.11,10,6,17,0.08
2013-4-25,62,50,40,49,39,27,100,72,27,30.34,30.17,8,3,16,0.00
2013-4-26,68,55,42,46,36,29,72,51,33,30.39,30.29,9,3,15,0.00
2013-4-27,56,52,48,52,49,47,100,91,78,30.38,30.17,14,6,22,0.47
2013-4-28,54,52,49,54,52,49,100,100,93,30.21,30.05,15,6,24,1.61
2013-4-29,69,58,51,59,53,51,100,84,56,30.08,29.99,7,1,11,0.00
2013-4-30,71,62,53,60,55,51,95,79,61,30.17,30.02,7,2,12,0.00